Content
SEND FEEDBACK

Daily
Averages
Monthly
Summary
United States of America

UNIONTOWN, WASHINGTON


Home > North America > United States > Washington
Elevation: 411 meters     Latitude: 46 23N     Longitude: 117 01W

WEATHER
 
SELECT A DAY
Number of Records: 189,846;   Date Range: 1/1/95 - 10/24/14
 
SHARE

PRINT THIS DATA

[ ← Previous Day ]
WEATHER ALMANAC - 3 JANUARY, 2013
[ Next Day → ]
[ °F ]   °C
Weather ElementAverageHighLow
Temperature-3.3 °C0.6 °C (1:56 pm)-6.1 °C (5:56 am)
Dewpoint-8.8 °C-7.2 °C (6:56 pm)-10 °C (2:56 am)
Humidity67.5 %81 % (10:56 pm)50 % (1:56 pm)
Barometer1030.5 hPa1032.8 hPa (1:56 am)1028.1 hPa (2:56 pm)
Wind Speed5.3 km/h22.2 km/h (8:56 am)
Weather ElementAverage
Visibility16.1 km
Wind DirectionESE (108.7 °)

Weather ElementTotal
Precipitation---
Heating Degree Days21.1 (Base 18.3)
Averaged from 23 records on 3 January, 2013
WEATHER CONDITIONS BREAKOUT
WIND DIRECTION BREAKOUT
WEATHER BY HOUR - 3 JANUARY, 2013
[ °F ]   °C
Local TimeTemperatureDewpointHumidityBarometerVisibilityWind DirectionWind SpeedGust SpeedPrecipitationEventsConditions
1:56 AM-5.6 °C-9.4 °C75 %1032.8 hPa16.1 kmCalmClear
2:56 AM-5 °C-10 °C68 %1032.5 hPa16.1 kmSE (130°)11.1 km/hClear
3:56 AM-5.6 °C-10 °C72 %1032.2 hPa16.1 kmCalmClear
4:56 AM-5.6 °C-10 °C72 %1032.2 hPa16.1 kmSE (140°)5.6 km/hClear
5:56 AM-6.1 °C-9.4 °C78 %1032.2 hPa16.1 kmCalmClear
6:56 AM-5 °C-9.4 °C72 %1031.8 hPa16.1 kmEast (90°)13 km/hClear
7:56 AM-6.1 °C-10 °C74 %1031.8 hPa16.1 kmEast (100°)5.6 km/hClear
8:56 AM-4.4 °C-8.9 °C71 %1031.5 hPa16.1 kmEast (100°)22.2 km/hClear
9:56 AM-2.2 °C-10 °C56 %1031.2 hPa16.1 kmSE (140°)18.5 km/hClear
10:56 AM-1.7 °C-9.4 °C56 %1030.5 hPa16.1 kmCalmClear
11:56 AM-0.6 °C-9.4 °C52 %1029.5 hPa16.1 kmSouth (170°)7.4 km/hClear
12:56 PM0 °C-8.3 °C54 %1028.8 hPa16.1 kmNW (320°)5.6 km/hClear
1:56 PM0.6 °C-8.9 °C50 %1028.4 hPa16.1 kmWNW (300°)5.6 km/hClear
2:56 PM0.6 °C-8.9 °C50 %1028.1 hPa16.1 kmCalmClear
3:56 PM0 °C-8.3 °C54 %1028.1 hPa16.1 kmCalmClear
4:56 PM-1.7 °C-7.8 °C64 %1028.4 hPa16.1 kmWest (260°)5.6 km/hClear
5:56 PM-2.2 °C-7.8 °C66 %1028.4 hPa16.1 kmCalmClear
6:56 PM-3.9 °C-7.2 °C78 %1029.5 hPa16.1 kmWSW (250°)11.1 km/hClear
7:56 PM-4.4 °C-7.8 °C77 %1029.8 hPa16.1 kmSSW (210°)5.6 km/hClear
8:56 PM-3.9 °C-7.8 °C75 %1029.5 hPa16.1 kmCalmClear
9:56 PM-4.4 °C-7.8 °C77 %1029.8 hPa16.1 kmCalmMostly Cloudy
10:56 PM-4.4 °C-7.2 °C81 %1030.1 hPa16.1 kmWNW (290°)5.6 km/hOvercast
11:56 PM-5 °C-7.8 °C81 %1030.1 hPa16.1 kmCalmClear
Hourly data recorded from KLWS, located 0 kilometers away from Uniontown, Washington







STORIES FROM OUR PARTNERS